Regional Weather Roundup
Issued by NWS State College, PA

Home | Current Version | Previous Version | Text Only | Print | Product List | Glossary On
Versions: 1 2 3 4 5 6 7 8 9 10 11 12 13 14 15 16 17 18 19 20 21 22 23 24 25 26 27 28 29 30 31 32 33 34 35 36 37 38 39 40 41 42 43 44 45 46 47 48 49 50
000
ASUS41 KCTP 112303
RWRCTP

REGIONAL WEATHER ROUNDUP
NATIONAL WEATHER SERVICE STATE COLLEGE PA
600 PM EST THU FEB 11 2016

Note: "fair" indicates few or no clouds below 12,000 feet with no
significant weather and/or obstructions to visibility.

* = STATION THAT DOES NOT REPORT PRECIPITATION /E.G. RAIN...SNOW...ETC/
    THUNDER OR FOG.

PAZ002>004-007>009-013>016-020>023-029>032-120000-
WESTERN PENNSYLVANIA

CITY           SKY/WX    TMP DP  RH WIND       PRES   REMARKS
ERIE           CLOUDY    17   2  51 W10G18    30.21R WCI   5
MEADVILLE      CLOUDY    14   2  58 W9G18     30.16R WCI   2
FRANKLIN*      CLOUDY    12   0  57 W9G20     30.16R WCI   0
NEW CASTLE     FAIR      14   8  77 W6        30.23R WCI   5
BEAVER COUNTY  PTCLDY    14   7  73 W7        30.20R WCI   4
BUTLER*        CLEAR     12   5  73 W9        30.23R WCI   0
PITTSBURGH INT PTCLDY    15   2  56 W13       30.20R WCI   1
PITTSBURGH     CLEAR     17   0  47 W8G20     30.19R WCI   7
INDIANA*       MOCLDY    14   9  79 W10G16    30.19R WCI   1
LATROBE        PTCLDY    16   1  53 W10       30.21R WCI   3
WASHINGTON CO* MOCLDY    16   0  48 W6        30.22R WCI   7
$$

PAZ004>006-010>012-017>019-024>028-033>037-041-042-045-046-049>053-120000-
CENTRAL PENNSYLVANIA

CITY           SKY/WX    TMP DP  RH WIND       PRES   REMARKS
BRADFORD       LGT SNOW  10   1  67 W20G26    30.02R WCI  -9
DUBOIS         CLOUDY    11   0  61 W16G23    30.08R WCI  -6
CLEARFIELD     MOCLDY    14  -3  47 W13G26    30.10R WCI   0
JOHNSTOWN      CLOUDY    11  -1  58 W15       30.05R WCI  -5
ALTOONA        MOCLDY    15   2  56 NW22G28   30.12R WCI  -3
STATE COLLEGE  PTCLDY    16  -2  45 NW17G26   30.11R WCI   0
WILLIAMSPORT   CLOUDY    20   4  50 W18G26    30.11R WCI   5
SELINSGROVE    MOCLDY    20   0  41 W13G21    30.13R WCI   7
FT INDIANTOWN  NOT AVBL
CAPITAL CITY   PTCLDY    22   0  38 W13G21    30.16R WCI  10
HARRISBURG     PTCLDY    22   5  48 NW23G29   30.15R WCI   6
YORK           CLEAR     18   2  49 W12       30.15R WCI   5
$$

PAZ038>040-043-044-047-048-054-055-060>062-067>071-120000-
EASTERN PENNSYLVANIA

CITY           SKY/WX    TMP DP  RH WIND       PRES   REMARKS
SCRANTON       PTCLDY    16  -3  43 W15G24    30.04R WCI   1
MOUNT POCONO   MOCLDY    11  -4  51 NW15      29.92R WCI  -5
ALLENTOWN      CLEAR     20   6  55 W9G22     30.07R WCI   9
QUAKERTOWN*    PTCLDY    19  10  68 NW8       30.08R WCI   9
READING        CLOUDY    21   2  43 W14G24    30.10R WCI   8
LANCASTER      CLEAR     19   2  47 W16       30.13R WCI   4
COATESVILLE    CLEAR     19   3  49 W15       30.11R WCI   5
POTTSTOWN      MOCLDY    21   3  45 W10G21    30.11R WCI  10
BLUE BELL        N/A     21   3  45 W8G20     30.09R WCI  12
DOYLESTOWN     MOCLDY    19   5  54 NW12      30.07R WCI   7
WILLOW GROVE   NOT AVBL
NORTH PHILA    CLOUDY    24   4  42 W20G26    30.12R WCI  10
PHILADELPHIA   PTCLDY    25  -1  32 W20G28    30.14R WCI  11
$$



USA.gov is the U.S. government's official web portal to all federal, state and local government web resources and services.